Skip Navigation Links weather.gov 
NOAA logo-Select to go to the NOAA homepage NDBC Title GraphicClick to go to NDBC home page   Select to go to the NWS homepage
Home About Us Contact Us
 
 
    
    Station List

 Data Access
    Mobile Access
    Classic Maps
         Recent
         DART®
    Obs Search
    Ship Obs Report
    BuoyCAMs
    TAO
    DODS
    OceanSITES
    HF Radar
    OSMC
    Dial-A-Buoy
    RSS Feeds Image indicating link to RSS feed access page
    Web Widget
    Web Data Guide
    Maintenance Schedule
    Station Status Report

 Program Info
    TAO
    DART®
    IOOS®

 Publications
    NDBC PEA
    NDBC FONSI
    NDBC DQC Handbook

 Visitor Information
 
USA.gov is the U.S. government's official web portal to all federal, state and local government web resources and services.

Station ROBN4 - 8530973 - Robbins Reef, NJ Image indicating link to RSS feed of recent meteorological observations for station ROBN4

Owned and maintained by NOAA's National Ocean Service
C-MAN Station
40.657 N 74.065 W (40°39'26" N 74°3'55" W)

Site elevation: 0 m above mean sea level
Air temp height: 20.8 m above site elevation
Anemometer height: 21 m above site elevation

Latest NWS Marine Forecast

Search And Rescue (SAR) Data

Meteorological Observations from Nearby Stations and Ships Image indicating link to RSS feed of recent meteorological observations near station ROBN4

Regional HF Radar Surface Current Observations

Large icon indicates selected station.
yellow diamond Stations with recent data
red diamond Stations with no data in last 8 hours
     (24 hours for tsunami stations)


Conditions at ROBN4 as of
(7:30 pm EST on 12/10/2019)
0030 GMT on 12/11/2019:
     

Click on the graph icon in the table below to see a time series plot of the last five days of that observation.

5-day plot - Wind Direction Wind Direction (WDIR): WNW ( 290 deg true )
5-day plot - Wind Speed Wind Speed (WSPD): 16 kts
5-day plot - Wind Gust Wind Gust (GST): 20 kts
5-day plot - Atmospheric Pressure Atmospheric Pressure (PRES): 29.96 in
5-day plot - Air Temperature Air Temperature (ATMP): 53.1 °F
5-day plot - Wind Chill Wind Chill (CHILL): 47.8 °F
5-day plot - Wind Speed at 10 Meters Wind Speed at 10 meters (WSPD10M): 16 kts
5-day plot - Wind Speed at 10 Meters Wind Speed at 20 meters (WSPD20M): 16 kts
5-day plot - Wind Speed, Wind Gust and Atmospheric Pressure Combined plot of Wind Speed, Gust, and Air Pressure
NOS Water Level Observation Network Water Level
Previous observations
5-day plot - Wind Direction 5-day plot - Wind Speed 5-day plot - Wind Gust 5-day plot - Wave Height 5-day plot - Dominant Wave Period 5-day plot - Average Period 5-day plot - Mean Wave Direction 5-day plot - Atmospheric Pressure 5-day plot - Pressure Tendency 5-day plot - Air Temperature 5-day plot - Water Temperature 5-day plot - Dew Point 5-day plot - Salinity 5-day plot - Visibility 5-day plot - Tide (above MLLW)
MM DD TIME
(EST)
WDIR WSPD
kts
GST
kts
WVHT
ft
DPD
sec
APD
sec
MWD PRES
in
PTDY
in
ATMP
°F
WTMP
°F
DEWP
°F
SAL
psu
VIS
nmi
TIDE
ft
1210 7:24 pmWNW 15 17----29.96- 53.2-----
1210 7:18 pmWNW 15 19----29.95- 53.6-----
1210 7:12 pmWNW 16 21----29.95- 54.0-----
1210 7:06 pm W 17 19----29.95- 54.0-----
1210 7:00 pmWNW 17 23----29.95+0.11 54.5-----
1210 6:54 pmWNW 22 28----29.93- 54.7-----
1210 6:48 pmWNW 25 27----29.93- 54.7-----
1210 6:42 pmWNW 22 29----29.93- 55.0-----
1210 6:36 pmWNW 23 29----29.93- 54.9-----
1210 6:30 pmWNW 19 23----29.93- 54.9-----
1210 6:24 pmWNW 14 19----29.93- 54.9-----
1210 6:18 pm W 14 18----29.93- 55.4-----
1210 6:12 pm W 17 20----29.93- 55.0-----
1210 6:06 pmWNW 13 15----29.92- 55.0-----
1210 6:00 pm W 14 17----29.91+0.11 55.4-----
1210 5:54 pm W 15 18----29.90- 55.6-----
1210 5:48 pm W 14 17----29.89- 55.2-----
1210 5:42 pm W 9 12----29.89- 55.0-----
1210 5:36 pm W 9 11----29.89- 55.2-----
1210 5:30 pm W 9 11----29.88- 55.4-----
1210 5:24 pm W 10 12----29.88- 55.4-----
1210 5:18 pm W 10 13----29.87-------
1210 5:12 pm W 11 14----29.86- 55.2-----
1210 5:06 pm W 12 14----29.87- 55.2-----
1210 5:00 pm W 10 13----29.87+0.08 55.4-----
1210 4:54 pm W 11 14----29.88- 55.8-----
1210 4:48 pm W 12 17----29.88- 55.9-----
1210 4:42 pm W 13 17----29.88- 56.1-----
1210 4:36 pm W 15 20----29.87- 56.3-----
1210 4:30 pm W 14 17----29.87- 56.1-----
1210 4:24 pm W 11 14----29.86- 56.3-----
1210 4:18 pm W 11 15----29.86- 56.1-----
1210 4:12 pmWSW 11 12----29.84- 56.3-----
1210 4:06 pmWSW 10 13----29.84- 56.3-----
1210 4:00 pmWSW 10 12----29.84+0.04 56.1-----
1210 3:54 pmWSW 9 12----29.83- 56.5-----
1210 3:48 pmWSW 11 13----29.82- 56.5-----
1210 3:42 pmWSW 11 13----29.81- 56.5-----
1210 3:36 pmWSW 11 15----29.81- 56.7-----
1210 3:30 pmWSW 12 17----29.81- 56.7-----
1210 3:24 pmWSW 13 16----29.81- 56.5-----
1210 3:18 pmWSW 13 17----29.80- 56.7-----
1210 3:12 pmWSW 15 18----29.80- 56.7-----
1210 3:06 pmWSW 14 18----29.80- 56.5-----
1210 3:00 pmWSW 12 17----29.80+0.00 56.7-----
1210 2:54 pmWSW 14 16----29.79- 56.5-----
1210 2:48 pmWSW 12 15----29.80- 56.7-----
1210 2:42 pmWSW 13 16----29.80- 56.5-----
1210 2:36 pmWSW 12 17----29.80- 56.5-----
1210 2:30 pmWSW 12 15----29.80- 56.5-----
1210 2:24 pmWSW 12 18----29.80- 56.1-----
1210 2:18 pmWSW 14 16----29.80- 56.3-----
1210 2:12 pmWSW 15 16----29.80- 56.3-----
1210 2:06 pmWSW 14 18----29.80- 56.3-----
1210 2:00 pmWSW 12 15----29.79-0.01 56.1-----
1210 1:54 pmWSW 12 15----29.79- 55.9-----
1210 1:48 pmWSW 13 16----29.79- 56.1-----
1210 1:42 pmWSW 13 17----29.80- 55.9-----
1210 1:36 pmWSW 12 17----29.80- 55.8-----
1210 1:30 pmWSW 14 19----29.80- 55.6-----
1210 1:24 pmWSW 15 19----29.80- 55.6-----
1210 1:18 pm W 15 17----29.79- 55.6-----
1210 1:12 pm W 13 15----29.79- 55.6-----
1210 1:06 pm W 13 15----29.80- 55.6-----
1210 1:00 pmWSW 14 16----29.79-0.03 55.8-----
121012:54 pmWSW 14 17----29.80- 55.9-----
121012:48 pm W 13 16----29.80- 55.9-----
121012:42 pm W 14 18----29.80- 56.1-----
121012:36 pm W 16 21----29.80- 56.8-----
121012:30 pm W 19 22----29.78- 57.0-----
121012:24 pm W 16 18----29.78- 57.0-----
121012:18 pm W 16 20----29.79- 57.4-----
121012:12 pm W 16 19----29.79- 57.4-----
121012:06 pm W 16 20----29.79- 57.2-----
121012:00 pm W 14 19----29.80+0.00 57.4-----
121011:54 am W 15 21----29.79- 57.2-----
121011:48 am W 15 18----29.79- 57.2-----
121011:42 am W 14 17----29.80- 57.2-----
121011:36 am W 12 15----29.80- 57.2-----
121011:30 am W 13 16----29.80- 57.2-----
121011:24 am W 14 17----29.81- 57.4-----
121011:18 am W 14 15----29.81- 57.4-----
121011:12 am W 11 12----29.79- 57.2-----
121011:06 am W 9 13----29.79- 57.4-----
121011:00 am W 10 12----29.80+0.02 57.4-----
121010:54 amWSW 12 14----29.81- 57.2-----
121010:48 am W 10 13----29.81-------
121010:42 am W 11 14----29.81- 57.4-----
121010:36 am W 11 13----29.81- 57.4-----
121010:30 amWSW 10 14----29.81- 57.6-----
121010:24 am W 12 15----29.81- 57.6-----
121010:18 am W 11 13----29.81- 57.6-----
121010:12 am W 12 14----29.81- 57.4-----
121010:06 amWSW 12 15----29.82- 57.6-----
121010:00 amWSW 13 19----29.82+0.05 57.6-----
1210 9:54 amWSW 14 22----29.81- 57.4-----
1210 9:48 amWSW 12 16----29.81- 57.6-----
1210 9:42 amWSW 14 19----29.81- 57.4-----
1210 9:36 amWSW 14 18----29.81- 57.4-----
1210 9:30 amWSW 15 19----29.81- 57.4-----
1210 9:24 amWSW 15 18----29.81- 57.0-----
1210 9:18 amWSW 14 18----29.81- 56.8-----
1210 9:12 amWSW 13 16----29.81- 56.7-----
1210 9:06 amWSW 12 14----29.80- 56.5-----
1210 9:00 am W 8 11----29.80+0.04 56.1-----
1210 8:54 am W 5 7----29.79- 56.1-----
1210 8:48 am W 5 8----29.80- 56.3-----
1210 8:42 am W 7 9----29.80- 56.3-----
1210 8:36 am W 7 8----29.80- 56.3-----
1210 8:30 am W 6 8----29.79- 56.1-----
1210 8:24 amWSW 5 6----29.79- 56.1-----
1210 8:18 amWSW 4 6----29.79- 56.1-----
1210 8:12 amWSW 4 5----29.79- 56.1-----
1210 8:06 amWSW 4 6----29.78- 56.1-----
1210 8:00 am SW 4 6----29.78+0.03 56.1-----
1210 7:54 amWSW 4 5----29.78- 56.3-----
1210 7:48 am W 4 5----29.79- 56.3-----
1210 7:42 am W 4 5----29.78- 56.3-----
1210 7:36 amWSW 3 5----29.78- 55.8-----
1210 7:30 amWSW 4 6----29.77- 56.1-----
1210 7:24 am SW 4 6----29.77- 55.9-----
1210 7:18 am SW 4 7----29.77- 55.8-----
1210 7:12 amSSW 4 6----29.77- 55.8-----
1210 7:06 amSSW 5 7----29.76- 56.1-----
1210 7:00 amSSW 4 5----29.77+0.01 55.8-----
1210 6:54 amSSW 5 7----29.77- 56.1-----
1210 6:48 am S 5 8----29.77- 55.6-----
1210 6:42 am S 4 5----29.76- 54.9-----
1210 6:36 amSSE 4 5----29.77- 56.3-----
1210 6:30 am S 4 5----29.77- 56.7-----
1210 6:24 am SW 5 9----29.77- 57.0-----
1210 6:18 am SW 9 12----29.77- 57.0-----
1210 6:12 amWSW 9 12----29.77- 57.2-----
1210 6:06 amWSW 10 11----29.76- 57.0-----
1210 6:00 amWSW 9 12----29.76+0.01 57.2-----
1210 5:54 amWSW 11 14----29.76- 57.4-----
1210 5:48 amWSW 11 13----29.76- 57.2-----
1210 5:42 amWSW 12 15----29.75- 57.6-----
1210 5:36 amWSW 13 16----29.76- 57.4-----
1210 5:30 amWSW 10 13----29.75- 57.6-----
1210 5:24 amWSW 13 17----29.76- 57.2-----
1210 5:18 amWSW 10 13----29.76- 57.2-----
1210 5:12 am SW 12 15----29.76- 57.4-----
1210 5:06 amWSW 10 13----29.75- 57.4-----
1210 5:00 amWSW 12 14----29.75+0.02 57.6-----
1210 4:54 am SW 11 15----29.75- 57.4-----
1210 4:48 amWSW 10 13----29.75- 57.6-----
1210 4:42 amWSW 11 14----29.75- 57.7-----
1210 4:36 amWSW 13 16----29.75- 57.7-----
1210 4:30 amWSW 10 12----29.75- 57.7-----
1210 4:24 am SW 9 12----29.75- 57.7-----
1210 4:18 amWSW 11 13----29.75- 57.7-----
1210 4:12 amWSW 11 14----29.75- 57.7-----
1210 4:06 amWSW 9 15----29.76- 57.9-----
1210 4:00 am SW 15 18----29.75+0.02 57.7-----
1210 3:54 amWSW 11 15----29.75- 57.6-----
1210 3:48 amWSW 10 14----29.75- 57.7-----
1210 3:42 amWSW 11 15----29.75- 57.9-----
1210 3:36 amWSW 12 13----29.75- 57.7-----
1210 3:30 am SW 11 17----29.75- 57.7-----
1210 3:24 amWSW 12 18----29.75- 57.9-----
1210 3:18 amWSW 13 18----29.75- 57.7-----
1210 3:12 amWSW 13 17----29.74- 57.9-----
1210 3:06 amWSW 14 17----29.74- 58.1-----
1210 3:00 amWSW 16 20----29.75+0.01 57.7-----
1210 2:54 amWSW 12 17----29.75- 57.9-----
1210 2:48 amWSW 16 19----29.74- 57.9-----
1210 2:42 amWSW 14 20----29.74- 57.9-----
1210 2:36 amWSW 14 18----29.74- 57.7-----
1210 2:30 amWSW 15 20----29.75- 57.7-----
1210 2:24 amWSW 15 21----29.74- 57.9-----
1210 2:18 amWSW 18 22----29.74- 57.9-----
1210 2:12 amWSW 18 22----29.73- 57.6-----
1210 2:06 am SW 15 21----29.74- 57.6-----
1210 2:00 amWSW 16 22----29.73+0.00 57.6-----
1210 1:54 amWSW 16 22----29.73- 57.4-----
1210 1:48 amWSW 16 22----29.72- 57.2-----
1210 1:42 amWSW 18 22----29.72- 57.2-----
1210 1:36 amWSW 16 23----29.73- 57.2-----
1210 1:30 am SW 17 22----29.72- 57.2-----
1210 1:24 am SW 18 27----29.72- 57.2-----
1210 1:18 amWSW 19 27----29.72- 56.8-----
1210 1:12 amWSW 17 21----29.72- 56.8-----
1210 1:06 amWSW 19 24----29.72- 56.8-----
1210 1:00 amWSW 19 23----29.73-0.02 56.7-----
121012:54 amWSW 19 22----29.73- 56.5-----
121012:48 amWSW 15 20----29.72-------
121012:42 amWSW 17 23----29.72-------
121012:36 amWSW 18 22----29.73-------
121012:30 am SW 18 22----29.72- 56.5-----
121012:24 am SW 20 26----29.72- 56.1-----
121012:18 am SW 16 20----29.73- 55.9-----
121012:12 amWSW 15 18----29.73- 55.6-----
121012:06 amWSW 16 23----29.73- 55.6-----
121012:00 amWSW 19 25----29.73-0.03 55.6-----
120911:54 pmWSW 18 28----29.74- 55.6-----
120911:48 pmWSW 20 26----29.75- 55.8-----
120911:42 pmWSW 20 25----29.75- 55.6-----
120911:36 pmWSW 18 26----29.74- 55.8-----
120911:30 pm SW 20 26----29.74- 55.2-----
120911:24 pmWSW 19 29----29.74- 55.0-----
120911:18 pmWSW 22 26----29.74- 54.9-----
120911:12 pmWSW 22 26----29.74- 55.4-----
120911:06 pmWSW 21 28----29.74- 55.8-----
120911:00 pmWSW 24 28----29.74- 55.4-----
120910:54 pmWSW 20 28----29.74- 55.6-----
120910:48 pmWSW 24 28----29.74- 55.4-----
120910:42 pmWSW 18 24----29.75- 55.2-----
120910:36 pmWSW 18 24----29.75- 55.2-----
120910:30 pmWSW 19 24----29.75- 55.2-----
120910:24 pmWSW 17 25----29.75- 55.0-----
120910:18 pmWSW 18 24----29.75- 55.0-----
120910:12 pmWSW 21 25----29.75- 54.9-----
120910:06 pmWSW 18 26----29.75- 54.9-----
120910:00 pmWSW 19 26----29.75-0.05 54.7-----
1209 9:54 pmWSW 17 25----29.76- 54.9-----
1209 9:48 pmWSW 20 24----29.76- 54.9-----
1209 9:42 pmWSW 19 25----29.76- 54.7-----
1209 9:36 pm SW 18 25----29.77- 54.9-----
1209 9:30 pmWSW 18 23----29.77- 54.9-----
1209 9:24 pmWSW 17 23----29.76- 54.9-----
1209 9:18 pmWSW 17 24----29.75- 55.0-----
1209 9:12 pmWSW 18 22----29.75- 55.2-----
1209 9:06 pmWSW 19 24----29.76- 55.2-----
1209 9:00 pmWSW 21 26----29.77- 55.2-----
1209 8:54 pmWSW 17 22----29.77- 55.2-----
1209 8:48 pmWSW 15 22----29.76- 55.6-----
1209 8:42 pm SW 15 21----29.76- 55.4-----
1209 8:36 pm SW 14 19----29.77- 54.9-----
1209 8:30 pm SW 14 17----29.78- 53.6-----
1209 8:24 pmSSW 9 11----29.78- 52.9-----
1209 8:18 pmSSW 7 9----29.78- 52.3-----
1209 8:12 pmSSW 8 9----29.77- 52.5-----
1209 8:06 pm S 8 9----29.78- 53.1-----
1209 7:54 pm S 9 11----29.78- 52.9-----

Description of Measurements

Links which are specific to this station are listed below:

Real Time Data in tabular form for the last forty-five days.

Historical Data & Climatic Summaries for quality controlled data for the current month, previous months, and previous years.